This demonstration page uses our WeatherBlox Daily Observations layout. Learn more.

Left ArrowRight Arrow

41.86663, -103.66717

Hourly Observations for July 12, 2019

Temp ( °F °C ) Dew Point ( °F °C ) Humidity (%) Winds ( mph kmh ) Pressure ( in mb ) Visibility ( mi km ) Precip ( " mm )
12:53 am 00:53 Clear 66 19 N/A N/A E 6 9 29.86 1011 10 16 N/A
1:53 am 01:53 Clear 66 19 N/A N/A ENE 6 9 29.85 1011 10 16 N/A
2:53 am 02:53 Clear 64 18 N/A N/A WNW 6 9 29.85 1011 10 16 N/A
3:53 am 03:53 Clear 64 18 N/A N/A N 5 7 29.83 1010 10 16 N/A
4:53 am 04:53 Clear 63 17 N/A N/A WSW 8 13 29.85 1011 10 16 N/A
5:53 am 05:53 Sunny 66 19 N/A N/A NNE 12 19 29.87 1012 10 16 N/A
6:53 am 06:53 Sunny 70 21 N/A N/A VRB 3 6 29.92 1013 10 16 N/A
7:53 am 07:53 Sunny 73 23 N/A N/A N N/A 29.95 1014 10 16 N/A
8:53 am 08:53 Sunny 79 26 N/A N/A NE 12 19 29.97 1015 10 16 N/A
9:53 am 09:53 Sunny 81 27 N/A N/A E 13 20 29.96 1015 10 16 N/A
10:53 am 10:53 Sunny 81 27 N/A N/A E 8 13 29.96 1015 10 16 N/A
11:53 am 11:53 Sunny 82 28 N/A N/A SSE 8 13 29.96 1015 10 16 N/A
12:53 pm 12:53 Sunny 84 29 N/A N/A undefined N/A 29.95 1014 10 16 N/A
1:53 pm 13:53 Sunny 88 31 N/A N/A VRB 3 6 29.93 1013 10 16 N/A
2:53 pm 14:53 Sunny 90 32 N/A N/A E 8 13 29.90 1012 10 16 N/A
3:53 pm 15:53 Sunny 88 31 N/A N/A SSE 6 9 29.90 1013 10 16 N/A
4:53 pm 16:53 Sunny 88 31 N/A N/A N N/A 29.91 1013 10 16 N/A
5:53 pm 17:53 Sunny 86 30 N/A N/A SSE 3 6 29.87 1012 10 16 N/A
6:53 pm 18:53 Sunny 84 29 N/A N/A E 5 7 29.87 1011 10 16 N/A
7:53 pm 19:53 Sunny 82 28 N/A N/A ENE 6 9 29.88 1012 10 16 N/A
8:53 pm 20:53 Clear 73 23 N/A N/A ESE 6 9 29.89 1012 10 16 N/A
9:53 pm 21:53 Clear 73 23 N/A N/A S 9 15 29.91 1013 10 16 N/A
10:53 pm 22:53 Clear 72 22 N/A N/A E 12 19 29.95 1014 10 16 N/A
11:53 pm 23:53 Clear 66 19 N/A N/A E 6 9 29.97 1015 10 16 N/A

Powered by AerisWeather